Weather History for Farmingdale, NY

Change the Weather History Date:

Wednesday, February 6, 2013

  Actual Average Record
Temperature  
Mean Temperature 34 °F -  
Max Temperature 39 °F 38 °F 68 °F (2008)
Min Temperature 28 °F 24 °F 10 °F (2007)
Degree Days  
Heating Degree Days 32    
Moisture  
Dew Point 22 °F    
Average Humidity 71    
Maximum Humidity 93    
Minimum Humidity 40    
Precipitation  
Precipitation 0.00 in - - ()
Sea Level Pressure  
Sea Level Pressure 30.06 in    
Wind  
Wind Speed 5 mph (NNW)    
Max Wind Speed 14 mph    
Max Gust Speed 25 mph    
Visibility 7 miles    
Events      
Averages and records for this station are not official NWS values.
T = Trace of Precipitation, MM = Missing Value Source: NWS Daily Summary

Daily Weather History Graph

Daily Weather History Graph

Search for Another Location

Airport:

Trip Planner

Search our weather history database for the weather conditions in past years. The results will help you decide how hot, cold, wet, or windy it might be!

Date:

Astronomy

Feb. 06, 2013 Rise Set
Actual Time 6:58 AM EST 5:17 PM EST
Civil Twilight 6:29 AM EST 5:46 PM EST
Nautical Twilight 5:57 AM EST 6:18 PM EST
Astronomical Twilight 5:25 AM EST 6:50 PM EST
Moon 3:40 AM EST (2/6) 1:32 PM EST (2/6)
Length of Visible Light 11h 16m
Length of Day
10h 19m
Waning Crescent, 17% of the Moon is Illuminated
Feb 6
Waning Crescent
Feb 10
New
Feb 17
First Quarter
Feb 25
Full
Mar 4
Last Quarter

Hourly Weather History & Observations

Time (EST) Temp. Windchill Dew Point Humidity Pressure Visibility Wind Dir Wind Speed Gust Speed Precip Events Conditions
12:12 AM 30.2 °F 26.7 °F 28.4 °F 93% 29.92 in 6.0 mi NE 3.5 mph - N/A   Overcast
12:53 AM 30.0 °F 26.5 °F 28.0 °F 92% 29.91 in 5.0 mi NNE 3.5 mph - N/A   Overcast
1:29 AM 30.2 °F 24.3 °F 28.4 °F 93% 29.92 in 6.0 mi NNE 5.8 mph - N/A   Overcast
1:53 AM 30.0 °F 23.2 °F 28.0 °F 92% 29.92 in 5.0 mi North 6.9 mph - N/A   Overcast
2:12 AM 30.2 °F 25.4 °F 28.4 °F 93% 29.92 in 6.0 mi North 4.6 mph - N/A   Overcast
2:53 AM 30.0 °F 26.5 °F 28.0 °F 92% 29.93 in 5.0 mi NNW 3.5 mph - N/A   Overcast
3:34 AM 30.2 °F 26.7 °F 28.4 °F 93% 29.93 in 5.0 mi NNW 3.5 mph - N/A   Overcast
4:00 AM 30.2 °F - 28.4 °F 93% 29.93 in 5.0 mi Calm Calm - N/A   Overcast
4:18 AM 30.2 °F - 28.4 °F 93% 29.94 in 5.0 mi Calm Calm - N/A   Overcast
4:32 AM 30.2 °F - 28.4 °F 93% 29.94 in 4.0 mi Calm Calm - N/A   Overcast
4:53 AM 30.0 °F - 28.0 °F 92% 29.95 in 5.0 mi Calm Calm - N/A   Mostly Cloudy
5:04 AM 30.2 °F - 28.4 °F 93% 29.96 in 4.0 mi Calm Calm - N/A   Mostly Cloudy
5:53 AM 28.9 °F - 27.0 °F 92% 29.99 in 4.0 mi Calm Calm - N/A   Mostly Cloudy
6:19 AM 28.4 °F 24.6 °F 26.6 °F 93% 29.99 in 4.0 mi NNW 3.5 mph - N/A   Scattered Clouds
6:53 AM 28.9 °F 25.2 °F 27.0 °F 92% 30.01 in 3.0 mi NNW 3.5 mph - N/A   Mostly Cloudy
7:07 AM 28.4 °F 23.3 °F 26.6 °F 93% 30.01 in 2.5 mi NNW 4.6 mph - N/A   Overcast
7:53 AM 28.9 °F 25.2 °F 27.0 °F 92% 30.04 in 2.0 mi West 3.5 mph - N/A   Partly Cloudy
8:27 AM 30.2 °F 24.3 °F 28.4 °F 93% 30.05 in 3.0 mi West 5.8 mph - N/A   Clear
8:53 AM 33.1 °F 25.5 °F 27.0 °F 78% 30.06 in 4.0 mi West 9.2 mph - N/A   Haze
9:53 AM 35.1 °F 27.4 °F 24.1 °F 64% 30.07 in 8.0 mi WNW 10.4 mph - N/A   Clear
10:53 AM 37.9 °F 31.5 °F 23.0 °F 55% 30.09 in 10.0 mi NNW 9.2 mph - N/A   Clear
11:53 AM 37.9 °F 29.6 °F 21.0 °F 51% 30.08 in 10.0 mi WNW 13.8 mph 19.6 mph N/A   Partly Cloudy
12:53 PM 37.9 °F 30.5 °F 19.0 °F 47% 30.09 in 10.0 mi NW 11.5 mph 19.6 mph N/A   Mostly Cloudy
1:53 PM 37.0 °F 28.9 °F 18.0 °F 46% 30.10 in 10.0 mi NW 12.7 mph 20.7 mph N/A   Overcast
2:53 PM 39.9 °F 32.1 °F 18.0 °F 41% 30.11 in 10.0 mi WNW 13.8 mph 21.9 mph N/A   Mostly Cloudy
3:53 PM 37.9 °F 30.5 °F 16.0 °F 41% 30.14 in 10.0 mi WNW 11.5 mph 25.3 mph N/A   Partly Cloudy
4:53 PM 37.9 °F 32.7 °F 16.0 °F 41% 30.16 in 10.0 mi NW 6.9 mph - N/A   Clear
5:53 PM 36.0 °F 30.3 °F 14.0 °F 41% 30.19 in 10.0 mi NW 6.9 mph - N/A   Clear
6:53 PM 35.1 °F 29.3 °F 12.9 °F 40% 30.24 in 10.0 mi NNW 6.9 mph 17.3 mph N/A   Clear
7:53 PM 34.0 °F 27.2 °F 12.0 °F 40% 30.27 in 10.0 mi NNW 8.1 mph 16.1 mph N/A   Clear
8:53 PM 32.0 °F 25.6 °F 10.9 °F 42% 30.30 in 10.0 mi NNW 6.9 mph - N/A   Clear
9:53 PM 30.9 °F 23.5 °F 10.0 °F 42% 30.31 in 10.0 mi NNW 8.1 mph - N/A   Clear
10:53 PM 30.0 °F 22.4 °F 10.0 °F 43% 30.33 in 10.0 mi North 8.1 mph - N/A   Clear
11:53 PM 28.9 °F 22.8 °F 7.0 °F 40% 30.35 in 10.0 mi NNW 5.8 mph - N/A   Clear